Theta_e
316 318 317 318 318 318 318 319 320 319 320 320 321 320 322 320 310 311 313 314 321 325 327 327 329 332 336 339 341 343 344 345 347
314 314 315 316 316 316 317 316 317 318 318 318 319 319 318 310 307 307 309 311 320 322 323 325 327 329 332 337 339 341 343 343 345
311 311 313 314 315 315 315 315 315 316 316 316 316 315 314 309 306 306 306 312 316 318 321 322 324 326 329 333 337 339 341 343 343
310 310 310 312 313 313 313 313 314 314 314 314 313 312 313 306 305 306 302 311 314 316 319 320 322 324 326 329 334 337 339 341 343
309 309 309 311 312 312 312 312 312 313 312 312 312 312 310 301 300 301 302 312 313 316 317 319 320 322 324 326 330 333 336 339 340
301 307 309 310 311 311 311 311 312 311 309 309 310 309 300 299 299 300 309 312 314 316 316 318 319 320 322 324 327 330 332 334 336
302 304 308 308 309 309 310 310 309 306 299 298 304 298 298 298 298 299 310 312 314 315 316 316 318 319 320 322 324 326 329 331 333
297 296 297 298 305 299 300 300 299 297 297 297 297 298 297 296 297 301 308 311 313 314 315 316 317 318 319 320 323 323 326 329 329
295 295 297 297 299 298 296 297 298 297 298 297 297 297 296 296 296 299 308 310 312 314 315 315 316 316 318 319 321 323 325 326 327
294 295 296 296 297 297 296 296 296 297 297 297 298 298 297 297 297 297 307 309 310 313 315 315 316 316 316 318 319 322 324 323 326
295 295 296 295 295 298 297 296 296 296 296 296 298 298 298 299 299 299 299 308 309 311 313 314 315 316 316 316 317 320 322 324 326
295 295 295 295 298 299 298 298 299 297 297 295 297 297 298 297 298 299 299 300 306 308 310 312 313 315 316 316 316 317 319 321 326
295 295 295 295 295 298 298 297 297 298 297 294 295 297 297 297 298 299 298 299 299 303 308 310 312 313 314 315 316 317 318 319 322
294 294 294 294 293 296 297 297 298 297 295 296 296 296 297 297 299 298 298 297 299 299 303 307 309 311 313 314 315 317 318 318 320
294 294 294 294 293 292 293 292 295 295 294 297 296 295 296 295 297 296 298 299 299 297 298 299 301 309 313 314 316 316 317 318 319
294 294 294 294 292 292 292 293 291 293 294 292 293 293 294 294 295 296 296 296 298 297 298 299 300 303 310 312 313 315 317 318 319
296 294 293 293 292 291 291 291 290 291 293 290 290 288 290 292 294 294 295 295 296 297 297 299 301 302 304 305 310 312 316 318 320
295 295 294 293 293 292 290 290 290 291 290 291 291 287 286 289 291 292 293 294 295 295 297 301 301 302 306 308 309 312 313 316 318
295 295 294 293 293 292 292 295 293 293 289 291 292 293 290 287 286 290 293 294 295 294 298 299 301 303 305 308 312 316 314 317 322
295 295 294 294 296 295 293 292 291 290 289 289 289 289 291 289 289 286 288 292 294 295 298 298 299 300 302 305 311 314 315 315 318
Wind_Speed
15 16 16 15 16 17 17 17 18 18 17 17 17 16 16 16 8 9 11 9 13 16 17 16 18 18 18 18 17 15 15 14 13
14 15 15 17 17 17 17 18 18 18 19 18 18 18 18 10 7 8 8 6 15 16 17 17 17 19 19 19 18 17 16 14 14
13 13 15 18 18 17 17 17 17 18 18 19 18 16 16 11 8 9 7 10 13 14 16 17 18 18 19 19 19 18 17 17 16
14 13 14 15 16 17 17 16 17 17 18 17 15 15 17 8 6 9 4 13 12 14 16 17 18 19 19 19 19 19 18 18 17
14 14 12 14 15 15 15 16 16 16 15 15 16 17 15 6 6 4 5 14 12 14 17 18 19 19 20 20 23 19 20 20 19
8 14 15 16 16 16 16 17 17 17 17 17 17 17 4 6 4 3 14 15 15 15 17 18 19 20 21 21 20 24 21 20 20
10 12 17 17 18 17 19 19 18 14 5 4 11 3 5 4 5 4 18 17 17 18 18 19 20 20 21 22 23 22 23 24 21
4 3 4 4 13 4 9 10 6 6 5 5 5 6 5 3 3 7 19 19 19 19 20 20 20 21 22 23 24 23 24 24 25
5 4 5 5 7 9 6 6 9 9 10 10 8 7 5 4 3 5 17 19 20 21 20 20 21 22 23 22 25 25 23 27 23
5 5 4 5 6 7 7 7 7 8 8 9 11 11 7 6 4 3 15 17 20 22 22 22 22 22 23 25 24 26 27 25 25
5 5 4 4 4 7 7 6 6 7 7 9 11 13 9 11 11 6 5 17 19 19 21 24 24 26 24 25 25 26 26 27 26
6 4 3 3 4 5 5 6 5 7 7 6 9 9 11 7 10 10 6 7 11 18 22 24 26 27 27 26 26 27 28 28 28
6 5 4 3 4 4 5 4 6 6 7 5 5 8 8 8 9 10 5 4 4 10 19 25 28 28 28 29 28 28 29 30 29
5 4 4 2 2 3 6 7 7 7 6 8 6 7 9 8 8 9 7 7 4 4 15 28 27 27 27 27 29 31 30 31 31
5 4 6 4 2 2 3 6 8 7 6 8 8 7 8 4 7 8 7 9 4 5 10 11 12 25 27 28 30 30 29 31 31
5 4 5 5 4 4 4 4 6 7 6 5 9 7 6 7 8 9 7 6 5 6 10 9 8 10 27 29 27 28 29 30 31
4 5 5 6 4 5 3 4 4 3 6 6 7 7 5 6 11 5 6 11 7 6 12 11 13 13 12 18 27 28 27 27 29
3 5 5 5 5 4 3 2 3 4 3 5 3 5 5 11 4 8 4 9 11 6 10 12 16 16 12 14 20 29 28 27 29
4 4 5 5 4 6 5 6 3 3 4 2 1 4 6 8 9 4 9 8 10 5 8 11 13 14 12 18 24 23 22 8 1
4 3 5 5 4 5 6 7 6 3 3 3 2 3 6 7 6 8 13 9 9 4 7 9 10 14 14 14 19 11 10 15 19
Wind_Direction
3 5 1 354 356 358 350 346 348 347 341 340 334 333 342 328 337 314 312 320 313 314 313 308 306 308 313 314 307 308 315 316 323
6 2 359 358 356 354 353 351 343 345 341 335 335 335 336 329 329 317 306 324 314 313 312 308 311 302 301 307 307 301 297 300 306
9 5 1 353 351 350 350 348 344 342 340 338 336 334 331 330 309 296 289 305 303 323 323 318 305 303 300 301 301 300 296 297 296
8 3 359 350 348 346 346 343 341 337 336 332 330 333 330 316 280 283 319 294 317 316 315 314 308 300 294 291 296 298 296 294 292
352 355 348 348 349 344 340 338 339 337 331 337 333 336 326 312 330 324 315 307 314 311 311 311 310 304 297 291 293 296 298 300 297
344 352 347 354 348 350 346 345 344 347 350 337 334 339 327 338 314 306 306 309 312 309 307 305 306 304 300 291 286 285 288 287 291
358 353 355 353 346 351 354 351 355 351 322 317 330 315 315 311 303 307 316 317 312 310 308 306 303 300 297 292 285 282 287 282 284
348 342 342 331 357 9 8 350 339 332 337 334 326 300 300 290 294 311 312 312 314 310 308 303 299 298 294 293 287 276 276 276 278
347 339 346 19 3 2 3 347 330 355 346 327 316 309 294 294 285 287 309 309 309 307 306 302 297 293 291 287 287 282 273 272 267
339 331 15 42 15 359 352 337 335 334 339 331 319 305 294 291 276 266 291 307 311 309 308 307 303 295 288 286 282 281 279 271 275
339 340 8 45 16 349 342 328 327 335 326 323 321 330 338 337 329 315 299 308 310 311 318 314 306 301 293 283 277 279 279 270 267
338 330 6 34 9 330 317 314 313 328 324 320 320 311 316 325 314 309 301 301 340 318 313 310 306 300 293 285 278 273 272 274 267
340 334 342 44 8 315 307 314 313 303 317 316 305 313 300 303 301 293 292 313 312 318 319 311 305 296 294 289 282 275 273 269 270
344 332 325 63 333 332 338 330 324 327 326 317 311 310 315 300 291 304 314 304 339 342 320 313 300 297 293 286 279 271 263 261 259
337 339 327 337 310 341 353 343 329 326 317 318 313 308 301 336 3 334 319 317 345 332 312 299 294 296 292 285 274 270 262 261 258
333 341 330 335 337 323 10 334 326 327 327 325 325 308 293 328 343 331 325 316 310 316 312 293 294 299 293 288 280 271 263 256 255
351 338 324 329 332 337 12 348 328 321 340 339 321 331 330 3 315 316 319 321 317 313 314 304 313 309 293 277 276 270 271 258 254
347 331 338 345 341 320 314 286 320 309 314 330 327 333 331 319 316 301 312 321 320 318 318 331 329 313 324 312 283 264 260 261 253
320 352 351 338 320 337 326 327 273 264 283 283 275 292 297 323 318 326 318 324 311 323 323 334 323 337 342 332 322 304 256 279 345
296 1 327 330 342 332 325 315 317 311 316 288 318 307 317 311 301 315 327 318 321 319 339 331 335 340 336 331 338 325 136 69 75